Location: North Fontana
(34.1395°N, 117.4623°W)
Time: 15:45:00
(UTC+00:00)

H-2A R/B - Pass Details

Date: 13 April 2024
Orbit: 732 x 832 km, 98.2° (Epoch: 26 May)

Event Time Altitude Azimuth Distance (km) Brightness Sun altitude
Rises 12:01:32 0° 16° (NNE) 3,195 5.8 -16.4°
Reaches altitude 10° 12:03:49 10° 19° (NNE) 2,279 5.0 -16.0°
Maximum altitude 12:08:48 65° 101° (E) 841 2.4 -15.0°
Drops below altitude 10° 12:13:53 10° 183° (S) 2,326 4.3 -14.0°
Sets 12:16:15 0° 186° (S) 3,267 5.0 -13.6°
